This demonstration page uses our WeatherBlox Daily Observations layout. Learn more.

38.89511, -77.03637

Hourly Observations for July 5, 2017

Temp ( °F °C ) Dew Point ( °F °C ) Humidity (%) Winds ( mph kmh ) Pressure ( in mb ) Visibility ( mi km ) Precip ( " mm )
12:52 am 00:52 Cloudy with Haze 78 25.6 69 20.6 74 74 NE 10 17 30.06 1018 5 8.04672 0 0
1:52 am 01:52 Cloudy 77 25 71 21.7 82 82 ENE 6 9 30.06 1018 10 16.09344 0 0
2:52 am 02:52 Cloudy 77 25 72 22.2 85 85 ENE 5 7 30.06 1018 10 16.09344 0 0
3:52 am 03:52 Cloudy 76 24.4 73 22.8 91 91 E 5 7 30.06 1018 10 16.09344 0 0
4:37 am 04:37 Cloudy 76 24.4 73 22.8 91 91 NE 6 9 30.06 1018 9 14.484096 0.001 0.001
4:40 am 04:40 Cloudy 76 24.4 73 22.8 91 91 NE 7 11 30.06 1018 9 14.484096 0.001 0.001
4:52 am 04:52 Cloudy with Light Rain 76 24.4 73 22.8 91 91 NE 7 11 30.06 1018 9 14.484096 0.001 0.001
5:52 am 05:52 Cloudy with Mist and Fog 76 24.4 74 23.3 94 94 NE 7 11 30.06 1018 5 8.04672 0.001 0.001
6:45 am 06:45 Cloudy with Mist and Fog 76 24.4 74 23.3 94 94 NNE 6 9 30.12 1020 5 8.04672 0 0
6:52 am 06:52 Cloudy with Mist and Fog 76 24.4 74 23.3 94 94 NE 6 9 30.09 1019 5 8.04672 0 0
7:52 am 07:52 Cloudy with Mist and Fog 77 25 74 23.3 90 90 NE 9 15 30.12 1020 4 6.437376 0.001 0.001
8:52 am 08:52 Cloudy with Light Rain 78 25.6 75 23.9 90 90 NE 7 11 30.12 1020 6 9.656064 0.001 0.001
9:05 am 09:05 Cloudy with Light Rain 78 25.6 75 23.9 90 90 NE 6 9 30.12 1020 6 9.656064 0.001 0.001
9:52 am 09:52 Cloudy with Light Rain 78 25.6 75 23.9 90 90 ENE 6 9 30.12 1020 6 9.656064 0.001 0.001
10:42 am 10:42 Cloudy with Light Rain 80 26.7 76 24.4 87 87 ENE 9 15 30.12 1020 10 16.09344 0.001 0.001
10:52 am 10:52 Mostly Cloudy 80 26.7 76 24.4 87 87 NE 9 15 30.12 1020 10 16.09344 0.001 0.001
11:52 am 11:52 Mostly Cloudy 82 27.8 75 23.9 79 79 ENE 7 11 30.12 1020 10 16.09344 0 0
12:06 pm 12:06 Partly Cloudy 82 27.8 74 23.3 77 77 E 10 17 30.15 1021 10 16.09344 0 0
12:52 pm 12:52 Partly Cloudy 83 28.3 74 23.3 74 74 E 9 15 30.12 1020 10 16.09344 0 0
1:52 pm 13:52 Mostly Cloudy 83 28.3 73 22.8 72 72 E 12 19 30.09 1019 10 16.09344 0 0
1:59 pm 13:59 Cloudy 83 28.3 73 22.8 72 72 E 13 20 30.12 1020 10 16.09344 0 0
2:52 pm 14:52 Cloudy 83 28.3 72 22.2 70 70 SE 12 19 30.09 1019 10 16.09344 0 0
3:52 pm 15:52 Cloudy 84 28.9 72 22.2 67 67 E 12 19 30.09 1019 10 16.09344 0 0
4:52 pm 16:52 Cloudy 84 28.9 73 22.8 70 70 ENE 15 24 30.09 1019 10 16.09344 0 0
5:52 pm 17:52 Cloudy 83 28.3 72 22.2 70 70 E 10 17 30.09 1019 10 16.09344 0 0
6:31 pm 18:31 Cloudy with Light Rain 76 24.4 70 21.1 82 82 S 20 31 30.12 1020 10 16.09344 0.001 0.001
6:52 pm 18:52 Cloudy with Light Rain 75 23.9 70 21.1 84 84 S 14 22 30.09 1019 10 16.09344 0.02 0.508
7:02 pm 19:02 Cloudy with Heavy Rain 75 23.9 72 22.2 90 90 SSE 10 17 30.12 1020 2 3.218688 0.02 0.508
7:04 pm 19:04 Cloudy with Heavy Rain 75 23.9 72 22.2 90 90 ESE 12 19 30.12 1020 1.75 2.816352 0.07 1.778
7:13 pm 19:13 Cloudy with Heavy Rain 75 23.9 74 23.3 96 96 E 13 20 30.12 1020 0.75 1.207008 0.2 5.08
7:19 pm 19:19 Cloudy with Heavy Rain 74 23.3 73 22.8 97 97 E 13 20 30.12 1020 0.75 1.207008 0.35 8.89
7:22 pm 19:22 Cloudy with Heavy Rain 74 23.3 73 22.8 97 97 E 15 24 30.12 1020 1 1.609344 0.4 10.16
7:33 pm 19:33 Cloudy with Heavy Rain 74 23.3 73 22.8 97 97 E 12 19 30.12 1020 2 3.218688 0.51 12.954
7:48 pm 19:48 Cloudy with Rain 73 23 72 22 94 94 ENE 12 19 30.12 1020 3 4.828032 0.59 14.986
7:52 pm 19:52 Cloudy with Light Rain 74 23.3 71 21.7 91 91 E 9 15 30.12 1020 4 6.437376 0.6 15.24
8:52 pm 20:52 Cloudy with Light Rain 74 23.3 68 20 82 82 Calm 30.12 1020 9 14.484096 0.05 1.27
9:52 pm 21:52 Cloudy with Light Rain 75 23.9 72 22.2 90 90 ENE 5 7 30.12 1020 10 16.09344 0.03 0.762
10:17 pm 22:17 Cloudy with Light Rain 75 23.9 73 22.8 94 94 NE 5 7 30.15 1021 9 14.484096 0.001 0.001
10:40 pm 22:40 Cloudy 75 23.9 73 22.8 94 94 NNE 6 9 30.15 1021 10 16.09344 0.001 0.001
10:52 pm 22:52 Cloudy 75 23.9 72 22.2 90 90 NNE 7 11 30.12 1020 10 16.09344 0.001 0.001
11:14 pm 23:14 Cloudy 75 23.9 73 22.8 94 94 NE 6 9 30.12 1020 10 16.09344 0 0
11:52 pm 23:52 Cloudy 75 23.9 73 22.8 94 94 ENE 6 9 30.12 1020 10 16.09344 0 0

Powered by AerisWeather